This is the latest recevied weather packets stored in our database for station/object KA9CBS. If no packets are shown the sender has not sent any weather packets the latest 10 day(s).
| Time | Temp. | Humidity | Pressure | Rain* | Wind** | Luminosity | Snow |
|---|---|---|---|---|---|---|---|
| 1778244724 | 12.78° C | 73% | 1015.7 hPa | 0 mm | - | 148 W/m² | - |
| 1778244422 | 12.78° C | 72% | 1015.9 hPa | 0 mm | - | 124 W/m² | - |
| 1778244119 | 12.78° C | 73% | 1015.8 hPa | 0 mm | - | 112 W/m² | - |
| 1778243817 | 12.22° C | 73% | 1016 hPa | 0 mm | - | 66 W/m² | - |
| 1778243515 | 12.22° C | 73% | 1016 hPa | 0 mm | - | 61 W/m² | - |
| 1778243211 | 11.67° C | 73% | 1015.9 hPa | 0 mm | - | 58 W/m² | - |
| 1778242907 | 11.67° C | 74% | 1015.6 hPa | 0 mm | - | 44 W/m² | - |
| 1778242606 | 11.67° C | 75% | 1015.8 hPa | 0 mm | - | 49 W/m² | - |
| 1778242304 | 11.11° C | 74% | 1015.6 hPa | 0 mm | - | 48 W/m² | - |
| 1778242001 | 11.11° C | 76% | 1016 hPa | 0 mm | - | 42 W/m² | - |
| 1778241699 | 10.56° C | 75% | 1015.8 hPa | 0 mm | - | 41 W/m² | - |
| 1778241397 | 10.56° C | 76% | 1015.9 hPa | 0 mm | - | 38 W/m² | - |
| 1778241093 | 10.56° C | 75% | 1016 hPa | 0 mm | - | 36 W/m² | - |
| 1778240790 | 10.56° C | 76% | 1015.7 hPa | 0 mm | - | 33 W/m² | - |
| 1778240486 | 10° C | 76% | 1015.7 hPa | 0 mm | - | 30 W/m² | - |
| 1778240183 | 10° C | 77% | 1015.8 hPa | 0 mm | - | 27 W/m² | - |
| 1778239882 | 10° C | 78% | 1015.6 hPa | 0 mm | - | 24 W/m² | - |
| 1778239577 | 9.44° C | 78% | 1015.6 hPa | 0 mm | - | 22 W/m² | - |
| 1778239275 | 9.44° C | 79% | 1015.6 hPa | 0 mm | - | 18 W/m² | - |
| 1778238971 | 9.44° C | 80% | 1015.6 hPa | 0 mm | - | 14 W/m² | - |
| 1778238668 | 9.44° C | 80% | 1015.7 hPa | 0 mm | - | 11 W/m² | - |
| 1778238367 | 8.89° C | 80% | 1015.6 hPa | 0 mm | - | 7 W/m² | - |
| 1778238062 | 8.89° C | 80% | 1015.7 hPa | 0 mm | - | 5 W/m² | - |
| 1778237757 | 8.89° C | 80% | 1015.7 hPa | 0 mm | - | 3 W/m² | - |
| 1778237455 | 8.89° C | 80% | 1015.6 hPa | 0 mm | - | 1 W/m² | - |
* Rain latest hour (hover to see other rain measurements)
** Current wind speed in m/s (hover to see current wind gust speed)